Location: Halle (Saale)
(51.4970°N, 11.9688°E)
Time: 14:34:00
(UTC+01:00)

ISS - Visible Passes

Search period start: 28 November 2023 00:00
Search period end: 08 December 2023 00:00
Orbit: 417 x 417 km, 51.6° (Epoch: 28 November)

Date Brightness Start Highest point End Pass type
(mag) Time Alt. Az. Time Alt. Az. Time Alt. Az.
28 Nov -3.8 17:28:52 10° W 17:32:15 86° N 17:34:22 21° E visible
28 Nov -1.4 19:05:39 10° W 19:07:17 25° W 19:07:17 25° W visible
29 Nov -3.6 18:17:21 10° W 18:20:41 64° SSW 18:21:00 59° SSE visible
30 Nov -3.7 17:29:00 10° W 17:32:22 79° SSW 17:34:46 18° ESE visible
30 Nov -1.3 19:05:56 10° W 19:07:41 22° WSW 19:07:41 22° WSW visible
01 Dec -2.5 18:17:25 10° W 18:20:34 38° SSW 18:21:31 30° SSE visible
02 Dec -3.0 17:28:57 10° W 17:32:13 51° SSW 17:35:27 10° SE visible
02 Dec -0.9 19:06:34 10° WSW 19:08:23 14° SW 19:08:23 14° SW visible
03 Dec -3.3 16:40:27 10° W 16:43:48 66° SSW 16:47:07 10° ESE visible
03 Dec -1.3 18:17:35 10° W 18:20:08 20° SW 18:22:30 11° SSE visible
04 Dec -1.7 17:28:50 10° W 17:31:47 28° SSW 17:34:42 10° SSE visible
05 Dec -2.3 16:40:10 10° W 16:43:20 39° SSW 16:46:29 10° SE visible
06 Dec -0.7 17:29:01 10° WSW 17:31:00 15° SW 17:32:58 10° S visible
07 Dec -0.9 16:39:56 10° W 16:42:34 21° SW 16:45:10 10° SSE visible
